PHMAS EGLF-LFBD

Flight info

Callsign PHMAS
Flight time 1h 50m
Altitude 19000
Route GWC N859 SITET A34 LGL H20 BENAR A34 AMB B19 CNA
Aircraft PC12/L-SDFGRWY/S

Departure

Time 2026-04-25 17:58
Airport Farnborough Airport (EGLF)

Arrival

Time 2026-04-25 19:48
Airport Bordeaux–Mérignac Airport (LFBD)
Time Latitude Longitude Altitude Speed Heading
2026-04-25 17:47 51.28237 -0.76227 225 ft 0 kts 181°
2026-04-25 17:55 51.28225 -0.76227 225 ft 4 kts 175°
2026-04-25 17:55 51.28202 -0.76182 225 ft 7 kts 101°
2026-04-25 17:56 51.28189 -0.76148 226 ft 0 kts 141°
2026-04-25 17:56 51.28169 -0.76143 226 ft 8 kts 182°
2026-04-25 17:56 51.28103 -0.76147 226 ft 1 kts 182°
2026-04-25 17:57 51.28066 -0.76184 226 ft 6 kts 244°
2026-04-25 17:57 51.28010 -0.76330 230 ft 34 kts 239°
2026-04-25 17:57 51.27821 -0.76943 224 ft 86 kts 249°
2026-04-25 17:57 51.27742 -0.77252 277 ft 88 kts 246°
2026-04-25 17:58 51.27322 -0.78948 616 ft 112 kts 256°
2026-04-25 17:58 51.27107 -0.80259 901 ft 127 kts 261°
2026-04-25 17:58 51.26906 -0.81616 1440 ft 125 kts 255°
2026-04-25 17:58 51.26339 -0.82602 1885 ft 131 kts 191°
2026-04-25 17:59 51.25431 -0.82777 2373 ft 132 kts 194°
2026-04-25 17:59 51.24643 -0.83398 2845 ft 123 kts 222°
2026-04-25 17:59 51.23971 -0.84374 2999 ft 145 kts 225°
2026-04-25 17:59 51.23053 -0.85321 3008 ft 172 kts 203°
2026-04-25 18:00 51.22285 -0.85837 3005 ft 188 kts 203°
2026-04-25 18:00 51.20566 -0.87037 3009 ft 212 kts 204°
2026-04-25 18:00 51.19213 -0.88016 3009 ft 221 kts 205°
2026-04-25 18:00 51.17792 -0.89042 3003 ft 226 kts 204°
2026-04-25 18:01 51.16354 -0.90074 3004 ft 226 kts 204°
2026-04-25 18:01 51.14923 -0.91099 3001 ft 224 kts 205°
2026-04-25 18:01 51.13511 -0.92138 3002 ft 222 kts 208°
2026-04-25 18:01 51.12391 -0.93781 2996 ft 221 kts 237°
2026-04-25 18:02 51.11627 -0.96213 3004 ft 222 kts 246°
2026-04-25 18:02 51.10888 -0.98379 2999 ft 225 kts 230°
2026-04-25 18:02 51.09616 -0.99849 3004 ft 230 kts 202°
2026-04-25 18:03 51.08034 -1.00224 3011 ft 233 kts 174°
2026-04-25 18:03 51.06419 -0.99875 3006 ft 236 kts 170°
2026-04-25 18:03 51.04810 -0.99463 3009 ft 237 kts 171°
2026-04-25 18:03 51.03174 -0.99066 3009 ft 238 kts 171°
2026-04-25 18:04 51.01533 -0.98682 3010 ft 239 kts 171°
2026-04-25 18:04 50.99909 -0.98200 3007 ft 236 kts 164°
2026-04-25 18:04 50.98307 -0.97560 3022 ft 238 kts 166°
2026-04-25 18:04 50.96686 -0.96963 3014 ft 239 kts 165°
2026-04-25 18:05 50.95204 -0.95895 3012 ft 235 kts 141°
2026-04-25 18:05 50.94029 -0.94133 3011 ft 232 kts 133°
2026-04-25 18:05 50.92886 -0.92306 3014 ft 233 kts 134°
2026-04-25 18:05 50.91740 -0.90498 3016 ft 233 kts 134°
2026-04-25 18:06 50.90586 -0.88686 3019 ft 233 kts 134°
2026-04-25 18:06 50.89458 -0.86871 3016 ft 232 kts 129°
2026-04-25 18:06 50.88629 -0.84743 3013 ft 229 kts 116°
2026-04-25 18:06 50.87861 -0.82447 3020 ft 230 kts 116°
2026-04-25 18:07 50.87111 -0.80259 3020 ft 230 kts 117°
2026-04-25 18:07 50.86338 -0.78035 3024 ft 231 kts 117°
2026-04-25 18:07 50.85506 -0.75873 3007 ft 231 kts 128°
2026-04-25 18:07 50.84257 -0.74273 3017 ft 232 kts 144°
2026-04-25 18:08 50.82908 -0.72850 3022 ft 233 kts 145°
2026-04-25 18:08 50.81544 -0.71416 3019 ft 237 kts 145°
2026-04-25 18:08 50.80168 -0.69945 3022 ft 240 kts 144°
2026-04-25 18:08 50.78801 -0.68482 3173 ft 235 kts 144°
2026-04-25 18:09 50.77493 -0.67086 3669 ft 219 kts 144°
2026-04-25 18:09 50.76256 -0.65765 4162 ft 209 kts 144°
2026-04-25 18:09 50.75074 -0.64503 4667 ft 201 kts 145°
2026-04-25 18:09 50.74681 -0.64084 4841 ft 199 kts 145°
2026-04-25 18:10 50.72806 -0.62086 5675 ft 192 kts 145°
2026-04-25 18:10 50.71703 -0.60914 6176 ft 189 kts 145°
2026-04-25 18:10 50.70619 -0.59761 6682 ft 187 kts 145°
2026-04-25 18:10 50.69544 -0.58619 7159 ft 185 kts 146°
2026-04-25 18:11 50.68482 -0.57491 7644 ft 184 kts 146°
2026-04-25 18:11 50.67426 -0.56367 8138 ft 182 kts 146°
2026-04-25 18:11 50.66380 -0.55252 8635 ft 181 kts 146°
2026-04-25 18:11 50.65339 -0.54145 9149 ft 180 kts 146°
2026-04-25 18:12 50.64315 -0.53056 9658 ft 179 kts 146°
2026-04-25 18:12 50.63279 -0.51960 10180 ft 179 kts 146°
2026-04-25 18:12 50.62583 -0.51223 10486 ft 179 kts 146°
2026-04-25 18:12 50.61239 -0.49800 11049 ft 181 kts 147°
2026-04-25 18:13 50.60187 -0.48687 11489 ft 183 kts 147°
2026-04-25 18:13 50.59124 -0.47563 11930 ft 185 kts 147°
2026-04-25 18:13 50.58047 -0.46425 12374 ft 187 kts 147°
2026-04-25 18:14 50.55863 -0.44120 13259 ft 191 kts 147°
2026-04-25 18:14 50.55129 -0.43346 13559 ft 192 kts 147°
2026-04-25 18:14 50.54010 -0.42166 14006 ft 194 kts 147°
2026-04-25 18:14 50.52515 -0.40591 14538 ft 196 kts 147°
2026-04-25 18:15 50.51379 -0.39395 14949 ft 197 kts 147°
2026-04-25 18:15 50.50619 -0.38595 15218 ft 198 kts 147°
2026-04-25 18:15 50.49474 -0.37390 15619 ft 199 kts 147°
2026-04-25 18:15 50.48316 -0.36174 16029 ft 201 kts 147°
2026-04-25 18:16 50.47149 -0.34948 16442 ft 202 kts 148°
2026-04-25 18:16 50.45975 -0.33715 16836 ft 203 kts 148°
2026-04-25 18:16 50.43586 -0.31210 17499 ft 213 kts 148°
2026-04-25 18:17 50.42336 -0.29902 17764 ft 219 kts 148°
2026-04-25 18:17 50.41056 -0.28562 18034 ft 223 kts 148°
2026-04-25 18:17 50.39754 -0.27199 18305 ft 227 kts 148°
2026-04-25 18:17 50.38447 -0.25833 18566 ft 230 kts 148°
2026-04-25 18:18 50.37104 -0.24429 18800 ft 233 kts 148°
2026-04-25 18:18 50.35740 -0.23004 19010 ft 238 kts 148°
2026-04-25 18:18 50.34327 -0.21532 19018 ft 250 kts 148°
2026-04-25 18:18 50.32847 -0.19990 19021 ft 260 kts 148°
2026-04-25 18:19 50.31320 -0.18399 19025 ft 267 kts 148°
2026-04-25 18:19 50.29755 -0.16769 19027 ft 273 kts 148°
2026-04-25 18:19 50.28162 -0.15112 19028 ft 276 kts 148°
2026-04-25 18:19 50.26554 -0.13441 19027 ft 279 kts 148°
2026-04-25 18:20 50.24932 -0.11756 19028 ft 281 kts 148°
2026-04-25 18:20 50.23300 -0.10062 19023 ft 282 kts 148°
2026-04-25 18:20 50.21684 -0.08386 19024 ft 283 kts 148°
2026-04-25 18:20 50.19978 -0.06905 19020 ft 280 kts 157°
2026-04-25 18:21 50.18194 -0.05668 19024 ft 281 kts 158°
2026-04-25 18:21 50.16398 -0.04444 19022 ft 281 kts 158°
2026-04-25 18:21 50.14607 -0.03202 19022 ft 282 kts 158°
2026-04-25 18:21 50.12815 -0.01949 19021 ft 282 kts 158°
2026-04-25 18:22 50.11018 -0.00699 19015 ft 283 kts 158°
2026-04-25 18:22 50.09812 0.00077 19016 ft 280 kts 164°
2026-04-25 18:22 50.07356 0.01077 19015 ft 280 kts 168°
2026-04-25 18:22 50.05487 0.01784 19017 ft 280 kts 168°
2026-04-25 18:23 50.03590 0.02528 19014 ft 281 kts 168°
2026-04-25 18:23 50.01697 0.03283 19012 ft 281 kts 168°
2026-04-25 18:23 49.99803 0.04032 19014 ft 281 kts 168°
2026-04-25 18:23 49.97908 0.04776 19010 ft 281 kts 168°
2026-04-25 18:24 49.96012 0.05520 19011 ft 281 kts 168°
2026-04-25 18:24 49.94112 0.06267 19009 ft 281 kts 168°
2026-04-25 18:24 49.92219 0.07011 19009 ft 281 kts 168°
2026-04-25 18:24 49.90321 0.07756 19007 ft 281 kts 168°
2026-04-25 18:25 49.88441 0.08492 19008 ft 281 kts 168°
2026-04-25 18:25 49.86544 0.09236 19006 ft 281 kts 168°
2026-04-25 18:25 49.84650 0.09977 19005 ft 281 kts 168°
2026-04-25 18:25 49.82753 0.10719 19003 ft 281 kts 168°
2026-04-25 18:26 49.80855 0.11460 18998 ft 281 kts 168°
2026-04-25 18:26 49.78957 0.12201 18996 ft 281 kts 168°
2026-04-25 18:26 49.77063 0.12940 18996 ft 281 kts 168°
2026-04-25 18:26 49.75169 0.13678 18994 ft 281 kts 168°
2026-04-25 18:27 49.73273 0.14417 18991 ft 281 kts 168°
2026-04-25 18:27 49.71373 0.15156 18995 ft 281 kts 168°
2026-04-25 18:27 49.69478 0.15893 18991 ft 281 kts 168°
2026-04-25 18:27 49.67580 0.16632 18991 ft 281 kts 167°
2026-04-25 18:28 49.65688 0.17396 18989 ft 281 kts 167°
2026-04-25 18:28 49.63797 0.18171 18989 ft 280 kts 167°
2026-04-25 18:28 49.61935 0.18924 18992 ft 280 kts 167°
2026-04-25 18:29 49.58167 0.20436 18989 ft 279 kts 167°
2026-04-25 18:29 49.56287 0.21193 18991 ft 279 kts 167°
2026-04-25 18:30 49.50650 0.23457 18992 ft 279 kts 167°
2026-04-25 18:30 49.48771 0.24211 18991 ft 279 kts 167°
2026-04-25 18:30 49.46892 0.24963 18990 ft 279 kts 167°
2026-04-25 18:30 49.45017 0.25714 18990 ft 279 kts 167°
2026-04-25 18:31 49.43165 0.26455 18990 ft 278 kts 167°
2026-04-25 18:31 49.41286 0.27206 18989 ft 278 kts 167°
2026-04-25 18:31 49.39404 0.27958 18990 ft 278 kts 167°
2026-04-25 18:31 49.37530 0.28705 18988 ft 278 kts 167°
2026-04-25 18:32 49.35659 0.29451 18990 ft 278 kts 167°
2026-04-25 18:32 49.33781 0.30199 18990 ft 278 kts 167°
2026-04-25 18:32 49.31931 0.30936 18993 ft 278 kts 167°
2026-04-25 18:32 49.30080 0.31755 18989 ft 277 kts 164°
2026-04-25 18:33 49.28227 0.32558 18990 ft 276 kts 167°
2026-04-25 18:33 49.26362 0.33307 18989 ft 277 kts 166°
2026-04-25 18:33 49.24501 0.34097 18989 ft 277 kts 166°
2026-04-25 18:33 49.22643 0.34913 18989 ft 277 kts 165°
2026-04-25 18:34 49.20789 0.35717 18989 ft 277 kts 166°
2026-04-25 18:34 49.18936 0.36510 18986 ft 277 kts 166°
2026-04-25 18:34 49.17099 0.37296 18985 ft 277 kts 166°
2026-04-25 18:34 49.15245 0.38093 18986 ft 277 kts 166°
2026-04-25 18:35 49.13386 0.38892 18983 ft 277 kts 166°
2026-04-25 18:35 49.11532 0.39686 18984 ft 276 kts 166°
2026-04-25 18:35 49.09681 0.40477 18982 ft 276 kts 166°
2026-04-25 18:35 49.07825 0.41246 18979 ft 276 kts 166°
2026-04-25 18:36 49.05968 0.42000 18979 ft 276 kts 166°
2026-04-25 18:36 49.04111 0.42763 18976 ft 276 kts 166°
2026-04-25 18:36 49.02258 0.43529 18976 ft 276 kts 166°
2026-04-25 18:36 49.00406 0.44292 18979 ft 276 kts 166°
2026-04-25 18:37 48.98555 0.45054 18976 ft 276 kts 166°
2026-04-25 18:37 48.96729 0.45818 18976 ft 275 kts 166°
2026-04-25 18:37 48.94861 0.46606 18976 ft 275 kts 166°
2026-04-25 18:37 48.93008 0.47349 18972 ft 275 kts 167°
2026-04-25 18:38 48.91177 0.48073 18973 ft 275 kts 167°
2026-04-25 18:38 48.89325 0.48831 18972 ft 275 kts 166°
2026-04-25 18:38 48.87476 0.49596 18974 ft 275 kts 166°
2026-04-25 18:38 48.85628 0.50354 18972 ft 275 kts 167°
2026-04-25 18:39 48.83778 0.51108 18972 ft 275 kts 167°
2026-04-25 18:39 48.81929 0.51862 18970 ft 275 kts 167°
2026-04-25 18:39 48.80081 0.52616 18970 ft 275 kts 167°
2026-04-25 18:39 48.78225 0.53373 18970 ft 275 kts 167°
2026-04-25 18:40 48.76375 0.54117 18964 ft 275 kts 167°
2026-04-25 18:40 48.74546 0.54849 18965 ft 275 kts 167°
2026-04-25 18:40 48.72698 0.55592 18962 ft 275 kts 167°
2026-04-25 18:40 48.70852 0.56334 18963 ft 274 kts 167°
2026-04-25 18:41 48.69002 0.57077 18961 ft 274 kts 167°
2026-04-25 18:41 48.67154 0.57818 18962 ft 274 kts 167°
2026-04-25 18:41 48.65309 0.58558 18960 ft 274 kts 167°
2026-04-25 18:41 48.63462 0.59297 18963 ft 274 kts 167°
2026-04-25 18:42 48.61622 0.60034 18959 ft 274 kts 167°
2026-04-25 18:42 48.61027 0.60272 18962 ft 274 kts 167°
2026-04-25 18:42 48.57960 0.61497 18960 ft 274 kts 167°
2026-04-25 18:42 48.56113 0.62235 18956 ft 274 kts 167°
2026-04-25 18:43 48.54270 0.62970 18954 ft 273 kts 167°
2026-04-25 18:43 48.52431 0.63703 18957 ft 273 kts 167°
2026-04-25 18:43 48.50594 0.64435 18953 ft 273 kts 167°
2026-04-25 18:43 48.48754 0.65168 18954 ft 273 kts 167°
2026-04-25 18:44 48.46917 0.65898 18956 ft 273 kts 168°
2026-04-25 18:44 48.45078 0.66628 18950 ft 273 kts 167°
2026-04-25 18:44 48.43241 0.67358 18951 ft 273 kts 167°
2026-04-25 18:44 48.41405 0.68086 18950 ft 273 kts 168°
2026-04-25 18:45 48.39566 0.68815 18955 ft 273 kts 168°
2026-04-25 18:45 48.37758 0.69531 18953 ft 273 kts 168°
2026-04-25 18:45 48.35926 0.70256 18951 ft 273 kts 168°
2026-04-25 18:45 48.34091 0.70982 18950 ft 272 kts 168°
2026-04-25 18:46 48.32257 0.71707 18951 ft 272 kts 168°
2026-04-25 18:46 48.30426 0.72430 18950 ft 272 kts 168°
2026-04-25 18:46 48.28594 0.73152 18952 ft 272 kts 168°
2026-04-25 18:46 48.26759 0.73876 18949 ft 272 kts 168°
2026-04-25 18:47 48.24929 0.74597 18953 ft 272 kts 168°
2026-04-25 18:47 48.23095 0.75321 18952 ft 272 kts 168°
2026-04-25 18:47 48.21262 0.76045 18951 ft 272 kts 168°
2026-04-25 18:47 48.19430 0.76769 18953 ft 272 kts 168°
2026-04-25 18:48 48.17599 0.77490 18952 ft 272 kts 168°
2026-04-25 18:48 48.15768 0.78211 18951 ft 272 kts 168°
2026-04-25 18:48 48.13938 0.78931 18950 ft 272 kts 168°
2026-04-25 18:48 48.12133 0.79641 18949 ft 271 kts 168°
2026-04-25 18:49 48.10304 0.80360 18949 ft 272 kts 168°
2026-04-25 18:49 48.08476 0.81077 18950 ft 272 kts 168°
2026-04-25 18:49 48.06646 0.81795 18947 ft 272 kts 168°
2026-04-25 18:49 48.04820 0.82512 18949 ft 271 kts 168°
2026-04-25 18:50 48.02993 0.83227 18949 ft 271 kts 168°
2026-04-25 18:50 48.01165 0.83943 18951 ft 272 kts 168°
2026-04-25 18:50 47.99336 0.84659 18949 ft 271 kts 168°
2026-04-25 18:50 47.97509 0.85372 18950 ft 271 kts 168°
2026-04-25 18:51 47.95684 0.86081 18943 ft 271 kts 168°
2026-04-25 18:51 47.95067 0.86321 18944 ft 271 kts 168°
2026-04-25 18:51 47.92039 0.87500 19056 ft 267 kts 168°
2026-04-25 18:51 47.90248 0.88196 19132 ft 266 kts 168°
2026-04-25 18:52 47.88474 0.88884 19134 ft 267 kts 168°
2026-04-25 18:52 47.86670 0.89583 19135 ft 268 kts 168°
2026-04-25 18:52 47.84861 0.90285 19136 ft 269 kts 168°
2026-04-25 18:52 47.83045 0.90989 19136 ft 270 kts 168°
2026-04-25 18:53 47.81223 0.91695 19134 ft 270 kts 168°
2026-04-25 18:53 47.79400 0.92402 19133 ft 271 kts 168°
2026-04-25 18:53 47.77575 0.93110 19133 ft 271 kts 168°
2026-04-25 18:53 47.75751 0.93816 19133 ft 271 kts 168°
2026-04-25 18:54 47.72098 0.95228 19135 ft 271 kts 168°
2026-04-25 18:54 47.70278 0.95931 19133 ft 271 kts 168°
2026-04-25 18:54 47.68457 0.96634 19128 ft 271 kts 168°
2026-04-25 18:55 47.66651 0.97330 19134 ft 271 kts 168°
2026-04-25 18:55 47.64826 0.98034 19130 ft 271 kts 168°
2026-04-25 18:55 47.63004 0.98736 19131 ft 271 kts 167°
2026-04-25 18:55 47.61180 0.99438 19131 ft 271 kts 168°
2026-04-25 18:56 47.59358 1.00138 19127 ft 271 kts 168°
2026-04-25 18:56 47.57532 1.00840 19126 ft 271 kts 167°
2026-04-25 18:56 47.55710 1.01540 19125 ft 271 kts 167°
2026-04-25 18:56 47.53883 1.02241 19125 ft 271 kts 167°
2026-04-25 18:57 47.52084 1.02931 19127 ft 271 kts 167°
2026-04-25 18:57 47.50260 1.03630 19126 ft 271 kts 167°
2026-04-25 18:57 47.48432 1.04330 19125 ft 271 kts 167°
2026-04-25 18:57 47.47816 1.04566 19125 ft 271 kts 167°
2026-04-25 18:58 47.44780 1.05719 19125 ft 270 kts 169°
2026-04-25 18:58 47.41214 1.04917 19126 ft 262 kts 211°
2026-04-25 18:58 47.39659 1.03509 19127 ft 262 kts 214°
2026-04-25 18:59 47.36567 1.00637 19126 ft 263 kts 213°
2026-04-25 18:59 47.33476 0.97815 19125 ft 263 kts 213°
2026-04-25 19:00 47.30359 0.94961 19124 ft 263 kts 213°
2026-04-25 19:00 47.28802 0.93538 19124 ft 264 kts 213°
2026-04-25 19:01 47.25677 0.90685 19128 ft 263 kts 213°
2026-04-25 19:01 47.24118 0.89263 19127 ft 264 kts 213°
2026-04-25 19:01 47.22559 0.87842 19126 ft 264 kts 213°
2026-04-25 19:01 47.20997 0.86419 19128 ft 264 kts 213°
2026-04-25 19:02 47.17897 0.83599 19129 ft 264 kts 213°
2026-04-25 19:02 47.16333 0.82177 19130 ft 264 kts 213°
2026-04-25 19:02 47.14771 0.80755 19128 ft 264 kts 213°
2026-04-25 19:03 47.12683 0.78855 19133 ft 264 kts 213°
2026-04-25 19:03 47.10616 0.76976 19133 ft 264 kts 213°
2026-04-25 19:03 47.09053 0.75557 19137 ft 264 kts 213°
2026-04-25 19:04 47.05423 0.72265 19136 ft 264 kts 213°
2026-04-25 19:04 47.04368 0.71309 19135 ft 264 kts 213°
2026-04-25 19:05 47.01240 0.68478 19135 ft 264 kts 213°
2026-04-25 19:05 46.98131 0.65668 19134 ft 264 kts 213°
2026-04-25 19:05 46.96547 0.64237 19133 ft 264 kts 213°
2026-04-25 19:06 46.94983 0.62826 19135 ft 264 kts 213°
2026-04-25 19:06 46.91876 0.60025 19133 ft 264 kts 213°
2026-04-25 19:06 46.90311 0.58616 19134 ft 264 kts 213°
2026-04-25 19:07 46.87178 0.55798 19134 ft 264 kts 213°
2026-04-25 19:07 46.85611 0.54390 19131 ft 264 kts 213°
2026-04-25 19:08 46.82475 0.51575 19132 ft 264 kts 213°
2026-04-25 19:08 46.80910 0.50171 19131 ft 264 kts 213°
2026-04-25 19:09 46.76228 0.45979 19128 ft 264 kts 213°
2026-04-25 19:09 46.75169 0.45031 19128 ft 264 kts 213°
2026-04-25 19:09 46.71529 0.41779 19127 ft 264 kts 213°
2026-04-25 19:10 46.69961 0.40380 19126 ft 264 kts 213°
2026-04-25 19:10 46.68389 0.38978 19126 ft 264 kts 213°
2026-04-25 19:10 46.66818 0.37579 19124 ft 264 kts 213°
2026-04-25 19:10 46.65248 0.36180 19125 ft 264 kts 213°
2026-04-25 19:11 46.63680 0.34785 19123 ft 264 kts 213°
2026-04-25 19:11 46.62132 0.33408 19123 ft 264 kts 213°
2026-04-25 19:11 46.60563 0.32014 19122 ft 265 kts 213°
2026-04-25 19:11 46.58993 0.30619 19121 ft 265 kts 213°
2026-04-25 19:12 46.57382 0.29339 19121 ft 263 kts 206°
2026-04-25 19:12 46.55705 0.28234 19123 ft 264 kts 206°
2026-04-25 19:12 46.54031 0.27110 19123 ft 265 kts 206°
2026-04-25 19:12 46.52356 0.25984 19121 ft 265 kts 206°
2026-04-25 19:13 46.50680 0.24865 19125 ft 266 kts 206°
2026-04-25 19:13 46.48997 0.23744 19123 ft 266 kts 206°
2026-04-25 19:13 46.47336 0.22637 19127 ft 266 kts 206°
2026-04-25 19:13 46.45655 0.21516 19126 ft 266 kts 206°
2026-04-25 19:14 46.43973 0.20396 19127 ft 266 kts 206°
2026-04-25 19:14 46.42837 0.19641 19127 ft 266 kts 206°
2026-04-25 19:14 46.40604 0.18156 19130 ft 266 kts 206°
2026-04-25 19:14 46.38922 0.17038 19131 ft 266 kts 206°
2026-04-25 19:15 46.37235 0.15918 19133 ft 266 kts 206°
2026-04-25 19:15 46.35551 0.14800 19135 ft 266 kts 206°
2026-04-25 19:15 46.33868 0.13684 19139 ft 266 kts 206°
2026-04-25 19:15 46.32183 0.12568 19140 ft 266 kts 206°
2026-04-25 19:16 46.30494 0.11449 19140 ft 266 kts 206°
2026-04-25 19:16 46.28806 0.10332 19142 ft 266 kts 206°
2026-04-25 19:16 46.27144 0.09225 19145 ft 266 kts 206°
2026-04-25 19:16 46.25462 0.08097 19148 ft 266 kts 207°
2026-04-25 19:17 46.23780 0.06973 19147 ft 266 kts 206°
2026-04-25 19:17 46.22098 0.05852 19147 ft 266 kts 206°
2026-04-25 19:17 46.20413 0.04730 19147 ft 266 kts 206°
2026-04-25 19:17 46.18727 0.03607 19147 ft 266 kts 206°
2026-04-25 19:18 46.17044 0.02486 19153 ft 266 kts 206°
2026-04-25 19:18 46.15354 0.01362 19147 ft 266 kts 206°
2026-04-25 19:18 46.13668 0.00242 19152 ft 266 kts 207°
2026-04-25 19:18 46.12082 -0.00811 19151 ft 266 kts 207°
2026-04-25 19:19 46.10397 -0.01929 19155 ft 266 kts 206°
2026-04-25 19:19 46.08715 -0.03045 19152 ft 266 kts 207°
2026-04-25 19:19 46.07029 -0.04163 19152 ft 266 kts 207°
2026-04-25 19:19 46.05894 -0.04915 19155 ft 266 kts 207°
2026-04-25 19:20 46.03661 -0.06394 19156 ft 266 kts 207°
2026-04-25 19:20 46.01965 -0.07516 18896 ft 269 kts 207°
2026-04-25 19:20 46.00259 -0.08648 18549 ft 269 kts 207°
2026-04-25 19:20 45.98567 -0.09766 18156 ft 266 kts 207°
2026-04-25 19:21 45.96909 -0.10860 17763 ft 265 kts 206°
2026-04-25 19:21 45.93575 -0.13059 16981 ft 263 kts 206°
2026-04-25 19:21 45.91916 -0.14152 16599 ft 262 kts 206°
2026-04-25 19:22 45.90259 -0.15242 16222 ft 261 kts 206°
2026-04-25 19:22 45.88609 -0.16328 15845 ft 261 kts 206°
2026-04-25 19:22 45.85325 -0.18487 15143 ft 255 kts 206°
2026-04-25 19:23 45.83725 -0.19538 14799 ft 250 kts 206°
2026-04-25 19:23 45.81253 -0.21160 14274 ft 246 kts 205°
2026-04-25 19:24 45.79790 -0.22119 13961 ft 244 kts 205°
2026-04-25 19:24 45.76717 -0.24133 13222 ft 241 kts 205°
2026-04-25 19:25 45.73671 -0.26124 12495 ft 239 kts 205°
2026-04-25 19:25 45.72154 -0.27115 12149 ft 238 kts 205°
2026-04-25 19:25 45.70644 -0.28101 11794 ft 238 kts 205°
2026-04-25 19:26 45.69160 -0.29071 11460 ft 237 kts 205°
2026-04-25 19:26 45.67662 -0.30048 11116 ft 236 kts 204°
2026-04-25 19:26 45.66144 -0.30914 10769 ft 235 kts 192°
2026-04-25 19:26 45.64525 -0.30949 10438 ft 232 kts 173°
2026-04-25 19:27 45.62932 -0.30675 10167 ft 227 kts 172°
2026-04-25 19:27 45.61919 -0.30497 10162 ft 216 kts 173°
2026-04-25 19:27 45.60007 -0.30181 10156 ft 198 kts 173°
2026-04-25 19:27 45.58654 -0.29962 10015 ft 198 kts 173°
2026-04-25 19:28 45.57247 -0.29730 9762 ft 208 kts 173°
2026-04-25 19:28 45.55844 -0.29153 9506 ft 214 kts 153°
2026-04-25 19:28 45.54560 -0.28029 9246 ft 219 kts 146°
2026-04-25 19:28 45.53213 -0.27008 8990 ft 222 kts 166°
2026-04-25 19:29 45.51665 -0.27115 8733 ft 225 kts 188°
2026-04-25 19:29 45.50116 -0.27504 8484 ft 227 kts 188°
2026-04-25 19:29 45.48553 -0.27806 8233 ft 225 kts 185°
2026-04-25 19:29 45.47008 -0.28027 7985 ft 221 kts 185°
2026-04-25 19:30 45.45514 -0.28243 7739 ft 217 kts 185°
2026-04-25 19:30 45.44027 -0.28472 7495 ft 213 kts 186°
2026-04-25 19:30 45.42554 -0.28701 7250 ft 211 kts 185°
2026-04-25 19:30 45.41125 -0.28920 7167 ft 201 kts 185°
2026-04-25 19:31 45.39773 -0.29127 7171 ft 190 kts 186°
2026-04-25 19:31 45.38489 -0.29323 7165 ft 182 kts 186°
2026-04-25 19:31 45.37243 -0.29513 7047 ft 182 kts 186°
2026-04-25 19:31 45.35963 -0.29708 6812 ft 185 kts 186°
2026-04-25 19:32 45.34720 -0.29901 6571 ft 174 kts 186°
2026-04-25 19:32 45.33526 -0.30083 6317 ft 176 kts 185°
2026-04-25 19:32 45.32264 -0.30272 6066 ft 187 kts 185°
2026-04-25 19:32 45.31840 -0.30337 5986 ft 190 kts 185°
2026-04-25 19:33 45.29576 -0.30683 5570 ft 198 kts 184°
2026-04-25 19:33 45.28200 -0.30894 5321 ft 200 kts 185°
2026-04-25 19:33 45.26818 -0.31105 5074 ft 200 kts 184°
2026-04-25 19:33 45.25434 -0.31315 4823 ft 200 kts 184°
2026-04-25 19:34 45.24063 -0.31524 4571 ft 200 kts 184°
2026-04-25 19:34 45.22677 -0.31735 4318 ft 200 kts 184°
2026-04-25 19:34 45.21301 -0.31944 4124 ft 196 kts 184°
2026-04-25 19:34 45.19962 -0.32148 4001 ft 191 kts 184°
2026-04-25 19:35 45.18666 -0.32345 3928 ft 184 kts 184°
2026-04-25 19:35 45.17406 -0.32535 3851 ft 179 kts 184°
2026-04-25 19:35 45.16177 -0.32722 3775 ft 176 kts 184°
2026-04-25 19:35 45.14974 -0.32904 3693 ft 171 kts 184°
2026-04-25 19:36 45.13810 -0.33081 3615 ft 165 kts 184°
2026-04-25 19:36 45.12683 -0.33252 3546 ft 163 kts 184°
2026-04-25 19:36 45.11554 -0.33422 3468 ft 164 kts 183°
2026-04-25 19:36 45.10411 -0.33594 3397 ft 166 kts 184°
2026-04-25 19:37 45.09315 -0.34069 3319 ft 169 kts 213°
2026-04-25 19:37 45.08520 -0.35103 3246 ft 170 kts 223°
2026-04-25 19:37 45.07660 -0.36257 3178 ft 170 kts 218°
2026-04-25 19:37 45.06777 -0.37317 3101 ft 163 kts 218°
2026-04-25 19:38 45.05951 -0.38392 3018 ft 160 kts 221°
2026-04-25 19:38 45.05174 -0.39471 3007 ft 152 kts 222°
2026-04-25 19:38 45.04449 -0.40527 3002 ft 147 kts 223°
2026-04-25 19:38 45.03737 -0.41549 3002 ft 145 kts 223°
2026-04-25 19:39 45.03041 -0.42552 2999 ft 142 kts 223°
2026-04-25 19:39 45.02348 -0.43551 3001 ft 142 kts 222°
2026-04-25 19:39 45.01656 -0.44550 3004 ft 142 kts 223°
2026-04-25 19:39 45.00967 -0.45544 2998 ft 141 kts 223°
2026-04-25 19:40 45.00280 -0.46528 2999 ft 140 kts 223°
2026-04-25 19:40 44.99625 -0.47478 3004 ft 133 kts 223°
2026-04-25 19:40 44.99003 -0.48374 3006 ft 119 kts 222°
2026-04-25 19:40 44.98461 -0.49155 3002 ft 105 kts 221°
2026-04-25 19:41 44.97953 -0.49881 3004 ft 103 kts 221°
2026-04-25 19:41 44.97455 -0.50597 3003 ft 102 kts 222°
2026-04-25 19:41 44.96962 -0.51305 3003 ft 101 kts 222°
2026-04-25 19:41 44.96796 -0.51542 3003 ft 100 kts 222°
2026-04-25 19:42 44.95991 -0.52701 3005 ft 99 kts 223°
2026-04-25 19:42 44.95508 -0.53397 3005 ft 100 kts 222°
2026-04-25 19:42 44.95023 -0.54097 3004 ft 99 kts 222°
2026-04-25 19:42 44.94536 -0.54793 3008 ft 101 kts 222°
2026-04-25 19:43 44.94045 -0.55502 2994 ft 101 kts 222°
2026-04-25 19:43 44.93546 -0.56217 2879 ft 104 kts 223°
2026-04-25 19:43 44.93029 -0.56962 2744 ft 108 kts 223°
2026-04-25 19:43 44.92498 -0.57724 2598 ft 107 kts 223°
2026-04-25 19:44 44.91988 -0.58457 2456 ft 106 kts 223°
2026-04-25 19:44 44.91476 -0.59192 2314 ft 105 kts 223°
2026-04-25 19:44 44.90964 -0.59926 2173 ft 105 kts 223°
2026-04-25 19:44 44.90452 -0.60662 2034 ft 105 kts 224°
2026-04-25 19:45 44.89939 -0.61398 1899 ft 105 kts 225°
2026-04-25 19:45 44.89424 -0.62136 1747 ft 105 kts 226°
2026-04-25 19:45 44.88911 -0.62872 1606 ft 105 kts 225°
2026-04-25 19:45 44.88403 -0.63600 1463 ft 103 kts 226°
2026-04-25 19:46 44.87902 -0.64318 1325 ft 102 kts 226°
2026-04-25 19:46 44.87413 -0.65019 1188 ft 101 kts 227°
2026-04-25 19:46 44.86918 -0.65732 1053 ft 102 kts 227°
2026-04-25 19:46 44.86420 -0.66448 912 ft 102 kts 226°
2026-04-25 19:47 44.85929 -0.67151 780 ft 101 kts 227°
2026-04-25 19:47 44.85429 -0.67881 645 ft 103 kts 228°
2026-04-25 19:47 44.84936 -0.68587 533 ft 100 kts 227°
2026-04-25 19:47 44.84444 -0.69278 409 ft 100 kts 227°
2026-04-25 19:48 44.83949 -0.69976 263 ft 100 kts 227°
2026-04-25 19:48 44.83487 -0.70643 162 ft 88 kts 228°
2026-04-25 19:48 44.83183 -0.71086 161 ft 7 kts 222°
2026-04-25 19:48 44.83162 -0.71117 161 ft 18 kts 226°
2026-04-25 19:49 44.83066 -0.71236 160 ft 12 kts 206°
2026-04-25 19:49 44.83038 -0.71245 160 ft 14 kts 178°
2026-04-25 19:49 44.82965 -0.71043 161 ft 0 kts 106°
2026-04-25 19:51 44.82964 -0.71038 161 ft 4 kts 108°
2026-04-25 19:52 44.82942 -0.70941 161 ft 17 kts 105°
2026-04-25 19:52 44.82901 -0.70740 162 ft 25 kts 105°
2026-04-25 19:52 44.82879 -0.70631 163 ft 10 kts 105°
2026-04-25 19:52 44.82860 -0.70529 163 ft 12 kts 92°
2026-04-25 19:53 44.82909 -0.70426 163 ft 14 kts 46°
2026-04-25 19:53 44.82973 -0.70334 162 ft 7 kts 45°
2026-04-25 19:53 44.82976 -0.70329 162 ft 0 kts 45°